Volver al catálogo

COSMOS 2251 DEB

ActivoLEO
NORAD 47045·DEBRIS·🇷🇺 Russia

Lanzado Jun 16, 1993 desde Plesetsk Cosmodrome

Loading…

Próximos Pases (próximas 24 horas)

TLE

EnvejeciendoSource: Space-Track

Época: Sep 10, 2026, 02:19 UTC

1 47045U 93036BWZ 26253.09704366  .00000094  00000-0  38710-4 0  9990
2 47045  74.0606   9.2851 0028051  82.5580  92.7421 14.39019571117086

Sigue COSMOS 2251 DEB en tiempo real con AllMySat

Download on the App Store